Regional Weather Roundup
Issued by NWS Little Rock, AR

Home | Current Version | Previous Version | Graphics & Text | Print | Product List | Glossary On
Versions: 1 2 3 4 5 6 7 8 9 10 11 12 13 14 15 16 17 18 19 20 21 22 23 24 25 26 27 28 29 30 31 32 33 34 35 36 37 38 39 40 41 42 43 44 45 46 47 48 49 50
817
ASUS44 KLZK 030505
RWRLZK

WEATHER ROUNDUP FOR ARKANSAS
NATIONAL WEATHER SERVICE LITTLE ROCK AR
1100 PM CST FRI DEC 02 2016

NOTE: "FAIR" INDICATES FEW OR NO CLOUDS BELOW 12,000 FEET WITH NO
SIGNIFICANT WEATHER AND/OR OBSTRUCTIONS TO VISIBILITY.

ARZ001-003-010-029-030600-
NORTHWEST ARKANSAS

CITY           SKY/WX    TMP DP  RH WIND       PRES   REMARKS
FAYETTEVILLE   CLOUDY    43  36  76 CALM      30.25R
FORT SMITH     CLOUDY    49  37  63 NE5       30.25R
HARRISON       CLOUDY    46  32  58 SE3       30.28R
BENTONVILLE    PTCLDY    50  28  43 E5        30.26S
ROGERS         PTCLDY    50  31  48 E8        30.27R
SILOAM SPGS    CLOUDY    48  30  49 CALM      30.25R
HIGHFILL       PTCLDY    50  32  50 E6        30.25S
$$

ARZ004-005-016-030600-
NORTH CENTRAL ARKANSAS

CITY           SKY/WX    TMP DP  RH WIND       PRES   REMARKS
BATESVILLE     CLOUDY    46  36  66 E3        30.31F
FLIPPIN        CLOUDY    46  30  53 CALM      30.28R
MTN HOME       CLOUDY    45  33  63 E5        30.29R
$$

ARZ040-041-030600-
WEST CENTRAL ARKANSAS

CITY           SKY/WX    TMP DP  RH WIND       PRES   REMARKS
MENA           CLOUDY    48  43  81 CALM      30.23F
MOUNT IDA      CLOUDY    46  40  79 CALM      30.23R
$$

ARZ009-017-025-026-028-030600-
NORTHEAST ARKANSAS

CITY           SKY/WX    TMP DP  RH WIND       PRES   REMARKS
CORNING        FAIR      41  37  87 NE3       30.33R
JONESBORO      CLOUDY    45  36  70 E5        30.31S
NEWPORT        CLOUDY    45  40  82 MISG      30.31R
WALNUT RIDGE   CLOUDY    43  36  75 NE5       30.31S
BLYTHEVILLE    CLOUDY    45  37  73 NE3       30.33R
$$

ARZ022-023-033-042-044-030600-
CENTRAL ARKANSAS

CITY           SKY/WX    TMP DP  RH WIND       PRES   REMARKS
LITTLE ROCK    CLOUDY    46  39  76 NE3       30.27S
N LITTLE ROCK    N/A     48  36  63 E5        30.28S
JACKSONVILLE   MOCLDY    45  37  74 E2        30.27R
SEARCY         CLOUDY    48  41  76 NE7       30.31R
HOT SPRINGS    CLOUDY    53  35  50 E3        30.26R
RUSSELLVILLE   PTCLDY    51  33  50 E3        30.27R
$$

ARZ036-030600-
EAST ARKANSAS

CITY           SKY/WX    TMP DP  RH WIND       PRES   REMARKS
WEST MEMPHIS   CLOUDY    48  37  65 CALM      30.29S
$$

ARZ050-053-066-070-073-030600-
SOUTHWEST ARKANSAS

CITY           SKY/WX    TMP DP  RH WIND       PRES   REMARKS
ARKADELPHIA    FAIR      48  44  86 N3        30.25S
CAMDEN         CLOUDY    52  32  46 CALM      30.24R
TEXARKANA      CLOUDY    53  37  54 VRB5      30.22S
EL DORADO      CLOUDY    52  36  54 NE6       30.23R
DE QUEEN       CLOUDY    52  39  61 NE5       30.22R
$$

ARZ056-057-069-030600-
SOUTHEAST ARKANSAS

CITY           SKY/WX    TMP DP  RH WIND       PRES   REMARKS
PINE BLUFF     CLOUDY    47  42  83 NE5       30.25F
STUTTGART      PTCLDY    48  37  66 NE8       30.27F
MONTICELLO     MOCLDY    50  37  61 E3        30.24F

$$






USA.gov is the U.S. government's official web portal to all federal, state and local government web resources and services.